Orbital Elements at Epoch 2459000.5 (2020-May-31.0) TDB
Reference: JPL 19 (heliocentric ecliptic J2000)
Element | Value | Uncertainty (1-sigma) | Units |
e | .1313655433513664 | 6.115e-08 | |
a | 2.279362359832544 | 8.0108e-09 | au |
q | 1.979932684938489 | 1.3642e-07 | au |
i | 6.321489869987864 | 7.1467e-06 | deg |
node | 215.2195296720994 | 3.0595e-05 | deg |
peri | 127.5705011757227 | 3.8203e-05 | deg |
M | 357.0512559358514 | 2.2378e-05 | deg |
tp | 2459010.795633259889 (2020-Jun-10.29563326) | 7.8156e-05 | TDB |
period | 1256.95139792681 3.44 | 6.6263e-06 1.814e-08 | d yr |
n | .2864072553590988 | 1.5099e-09 | deg/d |
Q | 2.578792034726598 | 9.0631e-09 | au |
|
| | Orbit Determination Parameters
Additional Information
|